This is the latest recevied weather packets stored in our database for station/object AD8PA-13. If no packets are shown the sender has not sent any weather packets the latest 10 day(s).
| Time | Temp. | Humidity | Pressure | Rain* | Wind** | Luminosity | Snow |
|---|---|---|---|---|---|---|---|
| 1777586273 | 11.11° C | 46% | 1014.6 hPa | 0 mm | - | - | - |
| 1777585372 | 11.67° C | 43% | 1014.7 hPa | 0 mm | - | - | - |
| 1777584468 | 11.11° C | 45% | 1014.5 hPa | 0 mm | - | - | - |
| 1777583565 | 12.22° C | 44% | 1014.6 hPa | 0 mm | - | - | - |
| 1777582662 | 12.78° C | 41% | 1014.5 hPa | 0 mm | - | - | - |
| 1777581762 | 13.33° C | 41% | 1014.8 hPa | 0 mm | - | - | - |
| 1777580862 | 12.22° C | 46% | 1014.7 hPa | 0 mm | - | - | - |
| 1777579962 | 10.56° C | 47% | 1014.6 hPa | 0 mm | - | - | - |
| 1777579057 | 11.67° C | 45% | 1014.7 hPa | 0 mm | - | - | - |
| 1777578154 | 12.22° C | 46% | 1014.6 hPa | 0 mm | - | - | - |
| 1777577248 | 11.67° C | 49% | 1014.9 hPa | 0 mm | - | - | - |
| 1777576347 | 11.11° C | 47% | 1015 hPa | 0 mm | - | - | - |
| 1777575441 | 12.78° C | 48% | 1014.9 hPa | 0 mm | - | - | - |
| 1777574536 | 11.11° C | 50% | 1015 hPa | 0 mm | - | - | - |
| 1777573634 | 10.56° C | 52% | 1014.7 hPa | 0 mm | - | - | - |
| 1777572729 | 10° C | 53% | 1015.1 hPa | 0 mm | - | - | - |
| 1777571826 | 11.11° C | 49% | 1014.9 hPa | 0 mm | - | - | - |
| 1777570921 | 10.56° C | 50% | 1015.1 hPa | 0 mm | - | - | - |
| 1777570015 | 11.11° C | 51% | 1014.9 hPa | 0 mm | - | - | - |
| 1777569110 | 11.11° C | 52% | 1015 hPa | 0 mm | - | - | - |
| 1777568207 | 11.11° C | 47% | 1015.2 hPa | 0 mm | - | - | - |
| 1777567303 | 10.56° C | 52% | 1015.5 hPa | 0 mm | - | - | - |
| 1777566402 | 11.11° C | 59% | 1015.3 hPa | 0 mm | - | - | - |
| 1777565503 | 10° C | 56% | 1015.4 hPa | 0 mm | - | - | - |
| 1777564602 | 10.56° C | 54% | 1015.4 hPa | 0 mm | - | - | - |
* Rain latest hour (hover to see other rain measurements)
** Current wind speed in m/s (hover to see current wind gust speed)